| time (UTC) | temp F | wind direction | speed knots | gust knots | rain 1hr in | rain 24hr in | rain mn in | humidity % | barometer mb |
| 20260508131558 | 62 | 122 | 0.0 | 0.9 | 0.03 | 0.97 | 0.97 | 89 | 993.0 |
| 20260508130108 | 61 | 122 | 0.0 | 0.9 | 0.13 | 0.97 | 0.97 | 89 | 993.1 |
| 20260508124551 | 61 | 122 | 0.0 | 0.9 | 0.13 | 0.97 | 0.97 | 89 | 993.2 |
| 20260508123049 | 60 | 122 | 0.0 | 0.9 | 0.12 | 0.96 | 0.96 | 89 | 993.1 |
| 20260508121556 | 60 | 122 | 0.9 | 4.3 | 0.10 | 0.94 | 0.94 | 89 | 993.0 |
| 20260508120046 | 61 | 204 | 0.0 | 2.6 | 0.00 | 0.84 | 0.84 | 89 | 993.4 |
| 20260508114545 | 61 | 185 | 0.0 | 1.7 | 0.01 | 0.84 | 0.84 | 89 | 993.0 |
| 20260508113046 | 61 | 99 | 0.0 | 0.9 | 0.37 | 0.84 | 0.84 | 89 | 993.3 |
| 20260508111544 | 61 | 123 | 0.0 | 1.7 | 0.39 | 0.84 | 0.84 | 89 | 992.8 |
| 20260508110044 | 61 | 173 | 0.0 | 2.6 | 0.39 | 0.84 | 0.84 | 89 | 992.8 |
| 20260508104613 | 61 | 59 | 0.0 | 1.7 | 0.51 | 0.82 | 0.82 | 89 | 992.9 |
| 20260508103045 | 61 | 49 | 0.0 | 5.2 | 0.15 | 0.46 | 0.46 | 89 | 993.6 |
| 20260508101542 | 61 | 126 | 0.0 | 0.0 | 0.14 | 0.45 | 0.45 | 89 | 992.6 |
| 20260508100042 | 61 | 126 | 0.0 | 2.6 | 0.14 | 0.45 | 0.45 | 88 | 992.5 |
| 20260508094544 | 61 | 276 | 0.9 | 1.7 | 0.00 | 0.31 | 0.31 | 88 | 992.8 |
| 20260508093038 | 61 | 1 | 0.0 | 0.0 | 0.00 | 0.31 | 0.31 | 89 | 992.6 |
| 20260508091536 | 61 | 1 | 0.0 | 0.0 | 0.01 | 0.31 | 0.31 | 88 | 992.4 |
| 20260508090040 | 61 | 1 | 0.0 | 0.0 | 0.01 | 0.31 | 0.31 | 88 | 992.7 |
| 20260508084534 | 61 | 325 | 0.0 | 0.9 | 0.01 | 0.31 | 0.31 | 88 | 992.8 |
| 20260508083039 | 61 | 325 | 0.0 | 1.7 | 0.11 | 0.31 | 0.31 | 88 | 993.0 |
| 20260508081537 | 61 | 318 | 1.7 | 3.5 | 0.30 | 0.30 | 0.30 | 87 | 993.7 |
| 20260508080031 | 61 | 139 | 1.7 | 4.3 | 0.30 | 0.30 | 0.30 | 87 | 992.7 |
| 20260508074527 | 61 | 283 | 0.9 | 2.6 | 0.30 | 0.30 | 0.30 | 86 | 993.7 |
| 20260508073025 | 62 | 35 | 0.0 | 1.7 | 0.20 | 0.20 | 0.20 | 82 | 994.1 |
| 20260508071522 | 64 | 292 | 0.0 | 1.7 | 0.00 | 0.00 | 0.00 | 73 | 993.9 |
| 20260508070026 | 64 | 121 | 0.0 | 1.7 | 0.00 | 0.00 | 0.00 | 73 | 993.9 |
| 20260508064519 | 64 | 121 | 0.0 | 0.9 | 0.00 | 0.00 | 0.00 | 73 | 994.0 |
| 20260508063016 | 64 | 121 | 0.0 | 0.9 | 0.00 | 0.00 | 0.00 | 73 | 994.1 |
| 20260508061516 | 64 | 121 | 0.0 | 0.0 | 0.00 | 0.00 | 0.00 | 75 | 994.5 |
| 20260508060012 | 63 | 121 | 0.0 | 0.0 | 0.00 | 0.00 | 0.00 | 75 | 994.3 |
| 20260508054511 | 63 | 121 | 0.0 | 0.0 | 0.00 | 0.00 | 0.00 | 74 | 994.2 |
| 20260508053014 | 63 | 121 | 0.0 | 0.0 | 0.00 | 0.00 | 0.00 | 74 | 994.2 |
| 20260508051508 | 63 | 121 | 0.0 | 0.0 | 0.00 | 0.00 | 0.00 | 73 | 994.3 |
| 20260508050007 | 63 | 121 | 0.0 | 0.0 | 0.00 | 0.00 | 0.00 | 72 | 994.3 |
| 20260508044506 | 63 | 121 | 0.0 | 0.0 | 0.00 | 0.00 | 0.00 | 72 | 994.3 |
| 20260508043005 | 64 | 121 | 0.0 | 0.0 | 0.00 | 0.00 | 0.00 | 71 | 994.2 |
| 20260508041506 | 64 | 121 | 0.0 | 0.0 | 0.00 | 0.00 | 0.00 | 71 | 994.3 |
| 20260508040003 | 64 | 121 | 0.0 | 0.0 | 0.00 | 0.00 | 0.00 | 71 | 994.3 |
| 20260508034504 | 64 | 121 | 0.0 | 0.0 | 0.00 | 0.00 | 0.00 | 69 | 994.1 |
| 20260508033002 | 64 | 121 | 0.0 | 0.0 | 0.00 | 0.00 | 0.00 | 68 | 994.0 |
| 20260508031504 | 65 | 121 | 0.0 | 0.9 | 0.00 | 0.00 | 0.00 | 67 | 994.0 |
| 20260508030002 | 65 | 121 | 0.0 | 0.0 | 0.00 | 0.00 | 0.00 | 65 | 993.9 |
| 20260508024603 | 66 | 121 | 0.0 | 0.0 | 0.00 | 0.00 | 0.00 | 63 | 993.7 |
| 20260508023100 | 66 | 121 | 0.0 | 0.9 | 0.00 | 0.00 | 0.00 | 61 | 993.5 |
| 20260508021600 | 66 | 121 | 0.0 | 1.7 | 0.00 | 0.00 | 0.00 | 62 | 993.6 |
| 20260508020059 | 67 | 101 | 0.0 | 1.7 | 0.00 | 0.00 | 0.00 | 61 | 993.3 |
| 20260508014558 | 67 | 124 | 0.0 | 0.9 | 0.00 | 0.00 | 0.00 | 60 | 993.3 |
| 20260508013106 | 68 | 191 | 0.0 | 2.6 | 0.00 | 0.00 | 0.00 | 59 | 993.3 |
| 20260508011557 | 68 | 188 | 0.0 | 3.5 | 0.00 | 0.00 | 0.00 | 58 | 993.3 |
| 20260508010056 | 68 | 138 | 1.7 | 5.2 | 0.00 | 0.00 | 0.00 | 58 | 993.5 |
| 20260508004600 | 69 | 158 | 1.7 | 6.1 | 0.00 | 0.00 | 0.00 | 57 | 993.2 |
| 20260508003055 | 69 | 223 | 0.0 | 5.2 | 0.00 | 0.00 | 0.00 | 57 | 993.2 |
| 20260508001553 | 70 | 214 | 1.7 | 4.3 | 0.00 | 0.00 | 0.00 | 56 | 993.3 |
| 20260508000053 | 70 | 86 | 0.9 | 6.1 | 0.00 | 0.00 | 0.00 | 55 | 993.6 |
| 20260507234653 | 71 | 94 | 0.9 | 6.1 | 0.00 | 0.00 | 0.00 | 54 | 993.6 |
| 20260507233050 | 71 | 197 | 1.7 | 6.1 | 0.00 | 0.00 | 0.00 | 54 | 993.5 |
| 20260507231548 | 72 | 162 | 1.7 | 5.2 | 0.00 | 0.00 | 0.00 | 53 | 993.4 |
| 20260507230051 | 74 | 138 | 2.6 | 5.2 | 0.00 | 0.00 | 0.00 | 48 | 993.6 |
| 20260507224547 | 73 | 42 | 0.0 | 0.9 | 0.00 | 0.00 | 0.00 | 48 | 993.5 |
| 20260507223043 | 73 | 17 | 0.0 | 1.7 | 0.00 | 0.00 | 0.00 | 48 | 993.6 |
| 20260507221542 | 73 | 41 | 0.9 | 3.5 | 0.00 | 0.00 | 0.00 | 46 | 993.8 |
| 20260507220042 | 73 | 28 | 0.0 | 2.6 | 0.00 | 0.00 | 0.00 | 45 | 993.8 |
| 20260507214537 | 73 | 111 | 0.0 | 2.6 | 0.00 | 0.00 | 0.00 | 46 | 994.0 |
| 20260507213039 | 74 | 87 | 0.0 | 2.6 | 0.00 | 0.00 | 0.00 | 44 | 994.2 |
| 20260507211534 | 73 | 316 | 0.9 | 4.3 | 0.00 | 0.00 | 0.00 | 43 | 994.4 |
| 20260507210031 | 73 | 55 | 0.0 | 4.3 | 0.00 | 0.00 | 0.00 | 45 | 994.5 |
| 20260507204529 | 74 | 59 | 1.7 | 6.1 | 0.00 | 0.00 | 0.00 | 43 | 994.6 |
| 20260507203028 | 74 | 106 | 0.9 | 4.3 | 0.00 | 0.00 | 0.00 | 43 | 994.6 |
| 20260507201531 | 75 | 70 | 1.7 | 6.1 | 0.00 | 0.00 | 0.00 | 43 | 994.9 |
| 20260507200023 | 74 | 319 | 2.6 | 5.2 | 0.00 | 0.00 | 0.00 | 44 | 995.2 |
| 20260507194522 | 73 | 112 | 1.7 | 6.1 | 0.00 | 0.00 | 0.00 | 45 | 995.3 |
| 20260507193025 | 73 | 1 | 2.6 | 7.0 | 0.00 | 0.00 | 0.00 | 46 | 995.6 |
| 20260507191514 | 72 | 102 | 2.6 | 7.8 | 0.00 | 0.00 | 0.00 | 46 | 995.9 |
| 20260507190015 | 72 | 275 | 1.7 | 6.1 | 0.00 | 0.00 | 0.00 | 47 | 996.0 |
| 20260507184511 | 72 | 62 | 2.6 | 5.2 | 0.00 | 0.00 | 0.00 | 47 | 996.0 |
| 20260507183013 | 71 | 7 | 2.6 | 7.8 | 0.00 | 0.00 | 0.00 | 47 | 996.3 |
| 20260507181506 | 70 | 1 | 2.6 | 8.7 | 0.00 | 0.00 | 0.00 | 48 | 996.4 |
| 20260507180004 | 69 | 31 | 1.7 | 7.0 | 0.00 | 0.00 | 0.00 | 49 | 996.8 |
| 20260507174501 | 69 | 18 | 2.6 | 7.0 | 0.00 | 0.00 | 0.00 | 50 | 996.9 |
| 20260507173100 | 68 | 359 | 1.7 | 7.8 | 0.00 | 0.00 | 0.00 | 50 | 997.4 |
| 20260507171557 | 68 | 111 | 2.6 | 5.2 | 0.00 | 0.00 | 0.00 | 50 | 997.8 |
| 20260507170055 | 67 | 131 | 0.9 | 5.2 | 0.00 | 0.00 | 0.00 | 54 | 998.3 |
| 20260507164612 | 66 | 63 | 0.9 | 3.5 | 0.00 | 0.00 | 0.00 | 57 | 998.5 |
| 20260507163050 | 66 | 100 | 0.9 | 6.1 | 0.00 | 0.00 | 0.00 | 59 | 998.5 |
| 20260507161552 | 66 | 284 | 1.7 | 4.3 | 0.00 | 0.00 | 0.00 | 57 | 998.4 |
| 20260507160048 | 65 | 108 | 1.7 | 6.1 | 0.00 | 0.00 | 0.00 | 60 | 998.5 |
| 20260507154545 | 64 | 360 | 1.7 | 6.1 | 0.00 | 0.07 | 0.00 | 61 | 998.6 |
| 20260507153043 | 64 | 53 | 1.7 | 7.0 | 0.00 | 0.07 | 0.00 | 60 | 998.7 |
| 20260507151540 | 63 | 1 | 2.6 | 7.0 | 0.00 | 0.07 | 0.00 | 64 | 998.9 |
| 20260507150038 | 62 | 278 | 1.7 | 5.2 | 0.00 | 0.07 | 0.00 | 67 | 999.0 |
| 20260507144534 | 62 | 52 | 0.9 | 4.3 | 0.00 | 0.07 | 0.00 | 69 | 999.1 |
| 20260507143054 | 61 | 93 | 0.9 | 3.5 | 0.00 | 0.07 | 0.00 | 71 | 999.2 |
| 20260507141538 | 60 | 77 | 1.7 | 4.3 | 0.00 | 0.07 | 0.00 | 74 | 999.3 |
| 20260507140026 | 58 | 11 | 0.9 | 3.5 | 0.00 | 0.07 | 0.00 | 76 | 999.4 |
| 20260507134523 | 57 | 274 | 0.9 | 3.5 | 0.00 | 0.07 | 0.00 | 78 | 999.5 |
| 20260507133021 | 57 | 6 | 0.0 | 2.6 | 0.00 | 0.07 | 0.00 | 80 | 999.7 |